timestamp,surface_pressure_avg,surface_temp_avg,battery_voltage,lat,long
2022-05-27 00:09:00+00:00,287.9663,8.94,12.25,47.84626,-54.09684
2022-05-27 00:19:00+00:00,278.5514,8.93,12.25,47.84626,-54.09684
2022-05-27 00:29:00+00:00,269.0381,8.9,12.25,47.84626,-54.09684
2022-05-27 00:39:00+00:00,263.0014,8.9,12.25,47.84626,-54.09684
2022-05-27 00:49:00+00:00,255.4048,8.9,12.25,47.84626,-54.09684
2022-05-27 00:59:00+00:00,245.1947,8.9,12.25,47.84626,-54.09684
2022-05-27 01:09:00+00:00,236.0664,8.89,12.25,47.84626,-54.09684
2022-05-27 01:19:00+00:00,231.7498,8.88,12.25,47.84626,-54.09684
2022-05-27 01:29:00+00:00,225.9798,8.88,12.25,47.84626,-54.09684
2022-05-27 01:39:00+00:00,219.7264,8.86,12.25,47.84626,-54.09684
2022-05-27 01:49:00+00:00,218.8198,8.87,12.25,47.84626,-54.09684
2022-05-27 01:59:00+00:00,218.6031,8.88,12.25,47.84626,-54.09684
2022-05-27 02:09:00+00:00,211.5964,8.87,12.25,47.84626,-54.09684
2022-05-27 02:19:00+00:00,203.6215,8.86,12.17,47.84626,-54.09684
2022-05-27 02:29:00+00:00,202.158,8.87,12.17,47.84626,-54.09684
2022-05-27 02:39:00+00:00,200.6265,8.88,12.17,47.84626,-54.09684
2022-05-27 02:49:00+00:00,196.3631,8.88,12.17,47.84626,-54.09684
2022-05-27 02:59:00+00:00,195.4381,8.87,12.17,47.84626,-54.09684
2022-05-27 03:09:00+00:00,198.1598,8.87,12.17,47.84626,-54.09684
2022-05-27 03:19:01+00:00,198.0114,8.86,12.17,47.84626,-54.09684
2022-05-27 03:29:01+00:00,193.2081,8.8,12.17,47.84626,-54.09684
2022-05-27 03:39:01+00:00,194.2031,8.69,12.17,47.84626,-54.09684
2022-05-27 03:49:01+00:00,199.3515,8.6,12.17,47.84626,-54.09684
2022-05-27 03:59:01+00:00,199.1797,8.62,12.17,47.84626,-54.09684
2022-05-27 04:09:01+00:00,201.0665,8.7,12.17,47.84626,-54.09684
2022-05-27 04:19:01+00:00,205.9714,8.74,12.17,47.84626,-54.09684
2022-05-27 04:29:01+00:00,206.5031,8.8,12.17,47.84626,-54.09684
2022-05-27 04:39:01+00:00,205.6097,8.8,12.17,47.84626,-54.09684
2022-05-27 04:49:01+00:00,208.7681,8.8,12.17,47.84626,-54.09684
2022-05-27 04:59:01+00:00,212.3315,8.79,12.17,47.84626,-54.09684
2022-05-27 05:09:01+00:00,213.9565,8.78,12.17,47.84626,-54.09684
2022-05-27 05:19:01+00:00,216.9565,8.72,12.17,47.84626,-54.09684
2022-05-27 05:29:01+00:00,220.1065,8.7,12.17,47.84626,-54.09684
2022-05-27 05:39:01+00:00,221.9248,8.7,12.17,47.84626,-54.09684
2022-05-27 05:49:01+00:00,224.7481,8.7,12.17,47.84626,-54.09684
2022-05-27 05:59:01+00:00,227.9898,8.7,12.17,47.84626,-54.09684
2022-05-27 06:09:01+00:00,230.513,8.7,12.17,47.84626,-54.09684
2022-05-27 06:19:00+00:00,233.8548,8.7,12.17,47.84626,-54.09684
2022-05-27 06:29:00+00:00,238.7781,8.7,12.17,47.84626,-54.09684
2022-05-27 06:39:00+00:00,244.0981,8.7,12.17,47.84626,-54.09684
2022-05-27 06:49:00+00:00,246.7614,8.65,12.17,47.84626,-54.09684
2022-05-27 06:59:00+00:00,252.1714,8.6,12.17,47.84626,-54.09684
2022-05-27 07:09:00+00:00,260.2331,8.6,12.17,47.84626,-54.09684
2022-05-27 07:19:01+00:00,266.4931,8.6,12.17,47.84626,-54.09684
2022-05-27 07:29:01+00:00,270.6898,8.6,12.17,47.84626,-54.09684
2022-05-27 07:39:01+00:00,279.563,8.6,12.17,47.84626,-54.09684
2022-05-27 07:49:01+00:00,286.5779,8.61,12.17,47.84626,-54.09684
2022-05-27 07:59:01+00:00,290.1797,8.6,12.17,47.84626,-54.09684
2022-05-27 08:09:01+00:00,294.3397,8.59,12.17,47.84626,-54.09684
2022-05-27 08:19:00+00:00,302.6247,8.2,12.17,47.84626,-54.09684
2022-05-27 08:29:00+00:00,303.9915,8.2,12.17,47.84626,-54.09684
2022-05-27 08:39:00+00:00,304.5947,8.3,12.17,47.84626,-54.09684
2022-05-27 08:49:00+00:00,307.08799999999997,8.3,12.17,47.84626,-54.09684
2022-05-27 08:59:00+00:00,312.3464,8.1,12.17,47.84626,-54.09684
2022-05-27 09:09:00+00:00,312.83799999999997,8.1,12.17,47.84626,-54.09684
2022-05-27 09:19:01+00:00,311.7362,8.2,12.17,47.84626,-54.09684
2022-05-27 09:29:01+00:00,314.0697,8.2,12.17,47.84626,-54.09684
2022-05-27 09:39:01+00:00,316.638,8.13,12.17,47.84626,-54.09684
2022-05-27 09:49:01+00:00,315.8931,8.2,12.17,47.84626,-54.09684
2022-05-27 09:59:01+00:00,314.878,8.2,12.17,47.84626,-54.09684
2022-05-27 10:09:01+00:00,316.8096,8.19,12.17,47.84626,-54.09684
2022-05-27 10:19:00+00:00,314.1613,8.13,12.25,47.84626,-54.09684
2022-05-27 10:29:00+00:00,311.858,8.1,12.25,47.84626,-54.09684
2022-05-27 10:39:00+00:00,310.7679,8.0,12.25,47.84626,-54.09684
2022-05-27 10:49:00+00:00,310.5247,7.99,12.25,47.84626,-54.09684
2022-05-27 10:59:00+00:00,308.0197,8.0,12.25,47.84626,-54.09684
2022-05-27 11:09:00+00:00,305.378,8.0,12.25,47.84626,-54.09684
2022-05-27 11:19:01+00:00,303.2546,8.0,12.49,47.84626,-54.09684
2022-05-27 11:29:01+00:00,300.2214,8.04,12.49,47.84626,-54.09684
2022-05-27 11:39:01+00:00,294.1613,8.08,12.49,47.84626,-54.09684
2022-05-27 11:49:01+00:00,284.0564,8.09,12.49,47.84626,-54.09684
2022-05-27 11:59:01+00:00,278.2814,8.0,12.49,47.84626,-54.09684
2022-05-27 12:09:01+00:00,272.6331,7.9,12.49,47.84626,-54.09684
2022-05-27 12:19:00+00:00,266.2547,7.9,12.57,47.84626,-54.09684
2022-05-27 12:29:00+00:00,257.9647,7.9,12.57,47.84626,-54.09684
2022-05-27 12:39:00+00:00,252.8297,7.9,12.57,47.84626,-54.09684
2022-05-27 12:49:00+00:00,244.3631,7.9,12.57,47.84626,-54.09684
2022-05-27 12:59:00+00:00,236.5015,7.9,12.57,47.84626,-54.09684
2022-05-27 13:09:00+00:00,231.3031,7.8,12.57,47.84626,-54.09684
2022-05-27 13:19:01+00:00,225.6248,7.79,12.65,47.84626,-54.09684
2022-05-27 13:29:01+00:00,217.0131,7.76,12.65,47.84626,-54.09684
2022-05-27 13:39:01+00:00,209.8864,7.8,12.65,47.84626,-54.09684
2022-05-27 13:49:01+00:00,208.7031,7.8,12.65,47.84626,-54.09684
2022-05-27 13:59:01+00:00,205.1198,7.7,12.65,47.84626,-54.09684
2022-05-27 14:09:01+00:00,197.9431,7.7,12.65,47.84626,-54.09684
2022-05-27 14:19:01+00:00,193.2465,7.7,12.57,47.84626,-54.09684
2022-05-27 14:29:01+00:00,191.0098,7.7,12.57,47.84626,-54.09684
2022-05-27 14:39:01+00:00,188.7181,7.7,12.57,47.84626,-54.09684
2022-05-27 14:49:01+00:00,187.2481,7.68,12.57,47.84626,-54.09684
2022-05-27 14:59:01+00:00,187.3881,7.68,12.57,47.84626,-54.09684
2022-05-27 15:09:01+00:00,186.9365,7.7,12.57,47.84626,-54.09684
2022-05-27 15:19:00+00:00,186.5631,7.7,12.65,47.84626,-54.09684
2022-05-27 15:29:00+00:00,185.9165,7.7,12.65,47.84626,-54.09684
2022-05-27 15:39:00+00:00,185.6614,7.7,12.65,47.84626,-54.09684
2022-05-27 15:49:00+00:00,187.2048,7.69,12.65,47.84626,-54.09684
2022-05-27 15:59:00+00:00,187.3465,7.5,12.65,47.84626,-54.09684
2022-05-27 16:09:00+00:00,186.0981,7.49,12.65,47.84626,-54.09684
2022-05-27 16:19:00+00:00,189.0865,7.49,12.41,47.84626,-54.09684
2022-05-27 16:29:00+00:00,192.9048,7.4,12.41,47.84626,-54.09684
2022-05-27 16:39:00+00:00,194.0014,7.5,12.41,47.84626,-54.09684
2022-05-27 16:49:00+00:00,196.8781,7.5,12.41,47.84626,-54.09684
2022-05-27 16:59:00+00:00,201.1881,7.44,12.41,47.84626,-54.09684
2022-05-27 17:09:00+00:00,203.5415,7.39,12.41,47.84626,-54.09684
2022-05-27 17:19:00+00:00,207.1931,7.3,12.57,47.84626,-54.09684
2022-05-27 17:29:00+00:00,213.9748,7.3,12.57,47.84626,-54.09684
2022-05-27 17:39:00+00:00,219.6948,7.3,12.57,47.84626,-54.09684
2022-05-27 17:49:00+00:00,222.8781,7.3,12.57,47.84626,-54.09684
2022-05-27 17:59:00+00:00,226.8931,7.3,12.57,47.84626,-54.09684
2022-05-27 18:09:00+00:00,233.6831,7.3,12.57,47.84626,-54.09684
2022-05-27 18:19:00+00:00,237.5696,7.3,12.49,47.84626,-54.09684
2022-05-27 18:29:00+00:00,239.4314,7.31,12.49,47.84626,-54.09684
2022-05-27 18:39:00+00:00,244.4514,7.34,12.49,47.84626,-54.09684
2022-05-27 18:49:00+00:00,250.1847,7.35,12.49,47.84626,-54.09684
2022-05-27 18:59:00+00:00,251.7364,7.37,12.49,47.84626,-54.09684
2022-05-27 19:09:00+00:00,254.9864,7.35,12.49,47.84626,-54.09684
2022-05-27 19:19:00+00:00,264.8697,7.3,12.49,47.84626,-54.09684
2022-05-27 19:29:00+00:00,272.4081,7.3,12.49,47.84626,-54.09684
2022-05-27 19:39:00+00:00,275.0164,7.35,12.49,47.84626,-54.09684
2022-05-27 19:49:00+00:00,282.368,7.39,12.49,47.84626,-54.09684
2022-05-27 19:59:00+00:00,293.048,7.4,12.49,47.84626,-54.09684
2022-05-27 20:09:00+00:00,300.1462,7.42,12.49,47.84626,-54.09684
2022-05-27 20:19:01+00:00,304.1346,7.5,12.41,47.84626,-54.09684
2022-05-27 20:29:01+00:00,312.6964,7.2,12.41,47.84626,-54.09684
2022-05-27 20:39:01+00:00,319.4679,7.0,12.41,47.84626,-54.09684
2022-05-27 20:49:01+00:00,320.038,7.0,12.41,47.84626,-54.09684
2022-05-27 20:59:01+00:00,322.7964,6.99,12.41,47.84626,-54.09684
2022-05-27 21:09:01+00:00,330.2729,7.0,12.41,47.84626,-54.09684
2022-05-27 21:19:00+00:00,333.6995,7.0,12.33,47.84626,-54.09684
2022-05-27 21:29:00+00:00,331.7629,7.1,12.33,47.84626,-54.09684
2022-05-27 21:39:00+00:00,333.3264,7.1,12.33,47.84626,-54.09684
2022-05-27 21:49:00+00:00,336.598,7.1,12.33,47.84626,-54.09684
2022-05-27 21:59:00+00:00,335.6847,7.1,12.33,47.84626,-54.09684
2022-05-27 22:09:00+00:00,334.1963,7.1,12.33,47.84626,-54.09684
2022-05-27 22:19:00+00:00,335.1929,7.1,12.33,47.84626,-54.09684
2022-05-27 22:29:00+00:00,332.6663,7.1,12.33,47.84626,-54.09684
2022-05-27 22:39:00+00:00,329.3880000000001,7.1,12.33,47.84626,-54.09684
2022-05-27 22:49:00+00:00,327.45799999999997,7.1,12.33,47.84626,-54.09684
2022-05-27 22:59:00+00:00,324.3713,7.1,12.33,47.84626,-54.09684
2022-05-27 23:09:00+00:00,321.798,7.09,12.33,47.84626,-54.09684
2022-05-27 23:19:01+00:00,318.8396,7.1,12.25,47.84626,-54.09684
2022-05-27 23:29:01+00:00,319.7713,7.1,12.25,47.84626,-54.09684
2022-05-27 23:39:01+00:00,318.3129,7.1,12.25,47.84626,-54.09684
2022-05-27 23:49:01+00:00,316.7213,7.1,12.25,47.84626,-54.09684
2022-05-27 23:59:01+00:00,313.4013,7.1,12.25,47.84626,-54.09684
